Location: Asheville, NC
(35.6000°N, 82.5500°W)
Time: 18:27:00
(UTC-04:00)

Vanguard 2 - Pass Details

Date: 08 December 2017
Orbit: 553 x 2939 km, 32.9° (Epoch: 20 July)

Event Time Altitude Azimuth Distance (km) Brightness Sun altitude
Rises 23:09:15 0° 265° (W) 2,859 - -69.6°
Reaches altitude 10° 23:11:51 10° 246° (WSW) 2,112 - -70.0°
Maximum altitude 23:15:16 19° 200° (SSW) 1,827 - -70.6°
Drops below altitude 10° 23:19:40 10° 157° (SSE) 2,808 - -71.3°
Sets 23:23:51 0° 142° (SE) 4,211 - -72.0°
